Regional Weather Roundup
Issued by NWS

Home | Current Version | Previous Version | Text Only | Print | Product List | Glossary Off
Versions: 1 2 3 4 5 6 7 8 9 10 11 12 13 14 15 16 17 18 19 20 21 22 23 24 25 26 27 28 29 30 31 32 33 34 35 36 37 38 39 40 41 42 43 44 45 46 47 48 49 50

000
ASUS45 KPSR 271010
RWRAZ

ARIZONA HOURLY REGIONAL WEATHER ROUNDUP
NATIONAL WEATHER SERVICE PHOENIX AZ
300 AM MST WED MAY 27 2015

NOTE: FAIR INDICATES FEW OR NO CLOUDS BELOW 12,000 FEET WITH NO
SIGNIFICANT WEATHER AND/OR OBSTRUCTIONS TO VISIBILITY.

AZZ001>003-036-271100-
NORTHWEST ARIZONA

CITY           SKY/WX    TMP DP  RH WIND       PRES   REMARKS
BULLHEAD CITY  PTCLDY    75  27  16 SE3       29.84S
KINGMAN        PTCLDY    58  25  28 SE6       29.98S
$$

AZZ004>008-015-016-018-271100-
NORTH CENTRAL ARIZONA

CITY           SKY/WX    TMP DP  RH WIND       PRES   REMARKS
GRAND CANYON   MOCLDY    39  35  86 CALM      30.17S
WILLIAMS       CLOUDY    46  34  61 S7        30.23S
PRESCOTT       PTCLDY    51  32  48 CALM      30.09S
FLAGSTAFF      CLOUDY    42  33  70 CALM      30.19S
PAYSON         MOCLDY    55  32  41 CALM      30.11R
PAGE           CLEAR     60  44  55 CALM      30.04F
$$

AZZ009>014-017-271100-
NORTHEAST ARIZONA

CITY           SKY/WX    TMP DP  RH WIND       PRES   REMARKS
WINSLOW        MOCLDY    49  33  54 CALM      30.09S
SAINT JOHNS    CLEAR     51  28  41 S7        30.14R
WINDOW ROCK    PTCLDY    48  34  58 CALM      30.18R
SHOW LOW       PTCLDY    45  28  53 S5        30.18S
$$

AZZ023-271100-
GREATER PHOENIX AREA

CITY           SKY/WX    TMP DP  RH WIND       PRES   REMARKS
PHOENIX        MOCLDY    79  37  22 N7        29.86S
BUCKEYE        PTCLDY    66  36  32 NW3       29.88S
LUKE AFB       PTCLDY    73  38  28 CALM      29.86S
DEER VALLEY    PTCLDY    68  39  34 CALM      29.88S
SCOTTSDALE     PTCLDY    75  39  27 CALM      29.90S
MESA-GATEWAY   PTCLDY    66  43  42 SE7       29.92R
$$

AZZ027-028-271100-
SOUTHWEST MARICOPA COUNTY AND PINAL COUNTY

CITY           SKY/WX    TMP DP  RH WIND       PRES   REMARKS
CASA GRANDE    MOCLDY    66  21  18 NE6       29.90R
GILA BEND      FAIR      70  37  29 S6        29.86S
$$

AZZ503-504-507>509-271100-
SOUTHEAST ARIZONA

CITY           SKY/WX    TMP DP  RH WIND       PRES   REMARKS
TUCSON         MOCLDY    69  34  27 SE5       29.99S
DAVIS-MONTHAN  MOCLDY    65  33  29 SE6       29.97F
NOGALES        CLEAR     54  31  41 S3        30.03S
SIERRA VISTA   PTCLDY    58  24  26 SW7       30.09R
DOUGLAS        CLEAR     56  23  27 CALM      30.05F
SAFFORD        PTCLDY    63  32  31 SE3       29.97R
$$

AZZ020-021-025-026-031-271100-
SOUTHWEST ARIZONA

CITY           SKY/WX    TMP DP  RH WIND       PRES   REMARKS
YUMA           MOCLDY    72  38  29 SE7       29.83R
$$

CAZ031-033-041-043-047-048-061-271100-
SOUTHERN CALIFORNIA

CITY           SKY/WX    TMP DP  RH WIND       PRES   REMARKS
DOWNTOWN L.A.  CLOUDY    60  54  80 VRB3      29.99S
L.A. AIRPORT   CLOUDY    58  54  86 SW7       30.00S
SAN DIEGO      CLOUDY    62  53  72 NW6       29.99S
BURBANK        CLOUDY    58  52  80 CALM      29.99S
ONTARIO        CLOUDY    59  53  80 NW3       29.97F HAZE
RIVERSIDE      CLOUDY    60  54  80 VRB3      29.98F
PALM SPRINGS   MOCLDY    69  53  56 CALM      29.87R
EL CENTRO NAS  PTCLDY    69  51  52 SE5       29.83R
IMPERIAL       PTCLDY    72  55  55 SE7       29.80S
BLYTHE         PTCLDY    73  45  36 S7        29.82S
NEEDLES        CLEAR     80  39  23 CALM      29.84R
$$

NVZ020-UTZ003-271100-
SOUTHERN NEVADA-UTAH

CITY           SKY/WX    TMP DP  RH WIND       PRES   REMARKS
LAS VEGAS      CLOUDY    74  34  23 SW8       29.85R
SALT LAKE CITY PTCLDY    53  47  79 SE5       30.05S
$$

NMZ009-TXZ055-271100-
NEW MEXICO-WEST TEXAS

CITY           SKY/WX    TMP DP  RH WIND       PRES   REMARKS
ALBUQUERQUE    PTCLDY    60  45  57 NE8       30.12R
EL PASO        CLEAR     66  30  26 S3        30.02R
$$


........................KEY........................
SKY/WX - SKY CONDITION/WEATHER
TMP    - TEMPERATURE IN FAHRENHEIT
DP     - DEW POINT IN FAHRENHEIT
RH     - RELATIVE HUMIDITY IN PERCENT
WIND   - DIRECTION AND SPEED IN MILES PER HOUR (MPH)
VRB    - VARIABLE WIND DIRECTION
PRES   - MEAN SEA LEVEL PRESSURE IN INCHES OF MERCURY
         F - FALLING PRESSURE   R - RISING PRESSURE
         S - STEADY PRESSURE
VSB    - VISIBILITY IN MILES
HX     - HEAT INDEX IN FAHRENHEIT
WCI    - WIND CHILL INDEX IN FAHRENHEIT
TC     - TEMPERATURE IN CELSIUS WHICH IS ALSO KNOWN AS
         TEMPERATURE IN CENTIGRADE
AFB    - AIR FORCE BASE
         LUKE AFB IS LUKE AIR FORCE BASE
         DAVIS-MONTHAN IS DAVIS-MONTHAN AIR FORCE BASE
NAS    - NAVAL AIR STATION
         EL CENTRO NAS IS EL CENTRO NAVAL AIR STATION
N/A    - NOT AVAILABLE




USA.gov is the U.S. government's official web portal to all federal, state and local government web resources and services.